TimeCST,TemperatureF,Dew PointF,Humidity,Sea Level PressureIn,VisibilityMPH,Wind Direction,Wind SpeedMPH,Gust SpeedMPH,PrecipitationIn,Events,Conditions,WindDirDegrees,DateUTC
12:53 AM,63.0,59.0,87,29.87,10.0,South,15.0,-,N/A,,Overcast,180,2014-03-01 06:53:00
1:53 AM,62.1,57.9,86,29.88,10.0,South,12.7,-,N/A,,Overcast,190,2014-03-01 07:53:00
2:53 AM,61.0,57.9,90,29.88,10.0,South,11.5,-,N/A,,Overcast,190,2014-03-01 08:53:00
3:53 AM,62.1,57.9,86,29.88,10.0,South,9.2,-,N/A,,Mostly Cloudy,180,2014-03-01 09:53:00
4:53 AM,62.1,59.0,90,29.90,10.0,South,10.4,-,N/A,,Overcast,180,2014-03-01 10:53:00
5:10 AM,62.6,59.0,88,29.92,10.0,South,11.5,-,N/A,,Overcast,190,2014-03-01 11:10:00
5:53 AM,63.0,59.0,87,29.92,10.0,South,8.1,-,N/A,,Overcast,190,2014-03-01 11:53:00
6:53 AM,63.0,59.0,87,29.94,10.0,South,6.9,-,N/A,,Overcast,180,2014-03-01 12:53:00
7:53 AM,64.0,59.0,84,29.96,10.0,South,9.2,-,N/A,,Overcast,180,2014-03-01 13:53:00
8:53 AM,66.0,60.1,81,29.97,10.0,South,11.5,-,N/A,,Overcast,190,2014-03-01 14:53:00
9:53 AM,68.0,59.0,73,29.99,10.0,South,15.0,-,N/A,,Overcast,190,2014-03-01 15:53:00
10:53 AM,70.0,59.0,68,29.99,10.0,South,16.1,-,N/A,,Mostly Cloudy,190,2014-03-01 16:53:00
11:53 AM,73.0,60.1,64,29.99,10.0,SSW,11.5,-,N/A,,Mostly Cloudy,200,2014-03-01 17:53:00
12:22 PM,73.4,60.8,65,29.99,10.0,South,16.1,21.9,N/A,,Scattered Clouds,190,2014-03-01 18:22:00
12:53 PM,75.0,60.1,60,29.97,10.0,South,15.0,-,N/A,,Mostly Cloudy,190,2014-03-01 18:53:00
1:43 PM,75.2,60.8,61,29.97,10.0,SSW,16.1,-,N/A,,Mostly Cloudy,200,2014-03-01 19:43:00
1:53 PM,75.9,61.0,60,29.95,10.0,South,13.8,-,N/A,,Mostly Cloudy,190,2014-03-01 19:53:00
2:53 PM,73.0,62.1,68,29.95,10.0,South,16.1,-,N/A,,Overcast,180,2014-03-01 20:53:00
3:53 PM,73.0,62.1,68,29.94,10.0,South,11.5,-,N/A,,Overcast,180,2014-03-01 21:53:00
4:00 PM,73.4,62.6,69,29.96,10.0,SSW,13.8,20.7,N/A,,Mostly Cloudy,200,2014-03-01 22:00:00
4:53 PM,73.9,61.0,64,29.92,10.0,SSW,13.8,-,N/A,,Scattered Clouds,200,2014-03-01 22:53:00
5:53 PM,72.0,62.1,71,29.91,10.0,SSE,8.1,-,N/A,,Clear,150,2014-03-01 23:53:00
6:53 PM,69.1,61.0,75,29.90,10.0,SE,8.1,-,N/A,,Clear,140,2014-03-02 00:53:00
7:53 PM,70.0,61.0,73,29.90,10.0,SSE,10.4,-,N/A,,Clear,160,2014-03-02 01:53:00
8:53 PM,71.1,61.0,70,29.91,10.0,SSE,13.8,-,N/A,,Clear,160,2014-03-02 02:53:00
9:53 PM,71.1,63.0,75,29.93,10.0,South,12.7,-,N/A,,Clear,170,2014-03-02 03:53:00
10:53 PM,70.0,63.0,78,29.93,10.0,South,13.8,-,N/A,,Partly Cloudy,180,2014-03-02 04:53:00
11:20 PM,69.8,62.6,78,29.95,10.0,South,12.7,-,N/A,,Mostly Cloudy,180,2014-03-02 05:20:00
11:53 PM,69.1,63.0,81,29.94,10.0,South,16.1,23.0,N/A,,Mostly Cloudy,180,2014-03-02 05:53:00